Location: Marcé
(47.5801°N, 0.3280°W)
Time: 00:18:12
(UTC+01:00)

S-56A Canister/Altair - Pass Details

Date: 01 December 2021
Orbit: 633 x 2499 km, 38.9° (Epoch: 17 January)

Event Time Altitude Azimuth Distance (km) Brightness Sun altitude
Rises 01:45:27 0° 227° (SW) 4,803 - -61.9°
Reaches altitude 10° 01:49:36 10° 217° (SW) 3,475 - -61.6°
Maximum altitude 01:56:15 27° 164° (SSE) 1,940 - -61.0°
Drops below altitude 10° 02:01:11 10° 108° (ESE) 2,521 - -60.6°
Sets 02:03:41 0° 95° (E) 3,279 - -60.3°
